Date,TemperatureHighF,TemperatureAvgF,TemperatureLowF,DewpointHighF,DewpointAvgF,DewpointLowF,HumidityHigh,HumidityAvg,HumidityLow,PressureMaxIn,PressureMinIn,WindSpeedMaxMPH,WindSpeedAvgMPH,GustSpeedMaxMPH,PrecipitationSumIn
2013-1-1,67.8,56.0,44.7,57.5,51.1,43.0,95,84,66,30.22,29.98,8,1,9,0.00
2013-1-2,63.5,57.9,50.3,58.8,54.7,48.6,94,89,80,30.16,29.92,11,1,11,0.01
2013-1-3,51.7,49.8,45.2,50.5,48.2,43.0,96,94,92,30.30,30.11,9,0,9,0.17
2013-1-4,57.1,43.4,34.0,43.0,37.2,33.0,96,81,46,30.38,30.28,9,0,9,0.01
2013-1-5,58.4,43.0,30.3,40.9,33.5,28.7,96,73,36,30.44,30.32,7,0,7,0.00
2013-1-6,55.2,49.1,45.1,47.4,44.4,40.9,94,84,64,30.33,30.14,4,0,4,0.01
2013-1-7,57.4,48.1,41.9,43.6,37.6,33.7,91,69,45,30.42,30.20,7,1,14,0.00
2013-1-8,68.9,53.1,42.5,55.1,46.0,37.4,94,78,59,30.42,30.33,8,1,8,0.00
2013-1-9,55.4,54.8,53.2,51.8,51.4,50.8,93,88,87,30.37,30.34,2,0,2,0.00
2013-1-10,70.1,60.0,52.2,60.9,56.3,50.8,95,88,62,30.47,30.38,10,4,10,0.02
2013-1-11,77.5,63.4,54.9,66.2,59.4,53.5,96,88,65,30.38,30.20,12,3,12,0.00
2013-1-12,83.1,67.3,56.8,66.0,61.4,55.7,96,83,52,30.23,30.14,8,2,8,0.01
2013-1-13,78.0,63.7,52.6,65.4,58.8,51.5,96,86,61,30.21,30.10,9,2,9,0.00
2013-1-14,79.4,66.6,56.2,67.5,61.5,54.8,96,85,59,30.22,30.13,16,5,16,0.01
2013-1-15,79.0,65.1,57.6,66.6,61.4,56.5,96,89,59,30.18,30.06,12,2,12,0.01
2013-1-16,80.0,68.3,60.7,65.1,62.4,59.3,96,83,57,30.09,29.97,18,2,18,0.00
2013-1-17,78.0,61.6,46.1,63.0,56.1,40.0,96,83,56,30.08,29.76,24,2,24,0.12
2013-1-18,54.6,45.2,35.9,41.7,32.8,25.2,92,65,33,30.52,30.08,16,2,18,0.00
2013-1-19,64.6,48.3,35.0,48.1,38.1,28.5,94,69,48,30.50,30.26,9,1,9,0.00
2013-1-20,70.2,50.6,38.8,47.9,38.4,27.3,96,70,21,30.26,30.07,14,0,14,0.00
2013-1-21,67.0,50.2,32.6,42.3,35.9,31.3,95,63,29,30.13,29.99,11,0,11,0.00
2013-1-22,56.4,45.6,31.8,35.3,26.9,23.2,87,50,31,30.31,30.07,13,1,14,0.00
2013-1-23,56.1,40.7,29.2,36.5,27.0,19.0,87,61,31,30.41,30.21,10,0,11,0.00
2013-1-24,67.3,51.0,34.1,47.0,34.1,17.8,81,54,31,30.50,30.13,15,3,17,0.00
2013-1-25,50.1,37.8,28.1,38.0,24.3,12.7,64,58,51,30.50,30.21,10,2,11,0.00
2013-1-26,59.9,46.3,36.2,42.4,35.7,30.3,87,68,43,30.34,30.15,9,3,9,0.00
2013-1-27,54.7,45.5,33.9,38.8,35.8,28.4,88,70,50,30.53,30.35,12,2,12,0.00
2013-1-28,67.6,50.6,40.6,54.0,44.1,35.0,95,79,61,30.50,30.31,7,1,7,0.00
2013-1-29,78.5,60.4,46.1,65.1,55.8,44.7,95,86,60,30.31,30.13,14,1,14,0.00
2013-1-30,75.8,68.8,58.5,66.5,64.2,57.1,95,86,70,30.13,29.66,33,5,33,0.18
2013-1-31,60.8,49.9,39.2,58.5,34.1,24.0,94,58,30,30.22,29.75,14,2,14,0.23
2013-2-1,58.9,45.2,28.7,34.1,26.2,14.9,79,51,21,30.39,30.18,16,1,16,0.00
2013-2-2,61.4,42.2,26.5,38.9,29.5,16.0,88,63,38,30.41,30.13,11,1,11,0.00
2013-2-3,62.6,48.5,36.7,37.5,33.7,30.8,86,60,34,30.13,29.95,14,1,14,0.00
2013-2-4,59.0,43.5,29.3,39.5,32.4,27.5,94,69,33,30.18,30.07,6,0,6,0.00
2013-2-5,71.3,51.9,32.6,50.8,42.8,31.3,95,75,37,30.11,29.97,14,1,15,0.00
2013-2-6,75.8,57.2,43.7,53.7,47.4,41.3,95,74,31,30.20,30.05,7,0,9,0.00
2013-2-7,59.4,52.6,44.7,55.7,50.9,43.4,96,94,85,30.19,29.73,10,1,12,2.33
2013-2-8,65.5,54.9,47.2,54.3,49.2,45.3,96,82,60,30.09,29.75,11,1,11,0.03
2013-2-9,61.5,48.0,35.1,48.2,34.5,26.2,93,65,27,30.37,30.09,11,1,12,0.00
2013-2-10,66.2,50.7,32.9,53.6,44.3,31.4,95,80,59,30.43,30.22,10,1,11,0.00
2013-2-11,65.4,61.1,53.9,63.1,59.4,51.3,96,94,91,30.25,30.08,13,2,14,1.46
2013-2-12,62.4,56.8,51.1,58.2,53.7,49.0,96,90,68,30.16,29.91,11,1,11,2.06
2013-2-13,51.3,50.3,49.4,50.2,49.2,48.3,96,96,95,29.93,29.81,11,2,11,0.54
2013-2-14,55.5,49.0,42.7,48.0,42.0,38.7,94,78,56,30.10,29.88,8,2,8,0.00
2013-2-15,66.0,46.9,34.3,45.0,40.3,33.3,96,80,36,30.14,30.00,9,1,9,0.00
2013-2-16,52.9,41.0,34.5,42.9,37.1,29.0,96,87,63,30.07,29.87,14,1,14,0.06
2013-2-17,48.2,36.5,27.0,29.3,19.3,9.1,85,54,24,30.35,30.07,16,2,17,0.00
2013-2-18,56.4,38.4,23.1,30.4,25.1,21.3,94,65,28,30.46,30.29,9,1,9,0.00
2013-2-19,64.3,48.9,34.1,55.0,45.6,30.0,96,89,59,30.30,30.01,17,1,18,0.30
2013-2-20,62.0,47.4,30.8,47.2,34.4,25.6,96,66,30,30.20,30.07,7,0,9,0.01
2013-2-21,66.3,48.2,33.0,44.8,38.6,31.7,95,73,37,30.22,30.11,8,1,8,0.00
2013-2-22,58.6,51.0,45.1,57.2,47.5,42.5,96,88,74,30.23,30.08,14,2,14,0.49
2013-2-23,61.2,48.6,43.3,60.1,47.5,42.2,96,96,91,30.09,29.81,12,0,13,1.93
2013-2-24,69.5,54.3,46.3,53.0,48.0,43.4,96,82,41,30.03,29.78,9,1,9,0.00
2013-2-25,49.1,45.6,41.5,46.2,43.2,38.1,96,91,79,30.12,29.98,15,2,15,0.22
2013-2-26,73.5,61.3,46.7,67.3,57.5,44.5,96,88,74,29.99,29.60,28,3,33,3.34
2013-2-27,61.3,53.1,46.9,53.8,43.2,38.6,91,70,50,29.93,29.72,12,1,12,0.00
2013-2-28,62.7,52.0,43.7,41.8,37.2,32.3,87,60,35,29.93,29.81,16,2,16,0.00
2013-3-1,55.6,46.1,38.9,35.5,32.8,30.4,85,61,42,29.99,29.89,9,1,11,0.00
2013-3-2,54.9,42.6,34.3,35.7,33.5,30.5,92,72,42,29.97,29.88,10,1,13,0.00
2013-3-3,49.1,39.1,30.2,33.7,28.2,25.5,92,67,43,30.06,29.94,11,1,11,0.00
2013-3-4,58.2,41.8,26.5,36.9,25.8,20.3,89,59,25,30.22,30.05,10,1,11,0.00
2013-3-5,68.0,53.9,37.5,56.6,43.6,35.6,94,71,35,30.16,29.75,21,2,24,0.03
2013-3-6,58.0,47.8,39.9,54.2,31.3,24.4,88,54,36,30.11,29.74,19,3,19,0.00
2013-3-7,62.2,46.0,31.2,35.8,32.0,27.4,87,61,34,30.26,30.11,12,1,13,0.00
2013-3-8,61.2,46.8,33.7,34.7,29.6,23.9,89,55,26,30.32,30.18,16,2,16,0.00
2013-3-9,67.0,48.6,33.1,42.5,35.0,28.4,92,63,34,30.35,30.25,11,1,12,0.00
2013-3-10,69.5,52.1,35.5,47.6,39.5,30.7,95,67,38,30.31,30.23,8,1,8,0.00
2013-3-11,71.5,60.0,44.5,59.9,52.3,40.1,95,77,55,30.24,29.93,17,2,17,0.00
2013-3-12,73.3,64.7,51.3,64.6,58.2,46.6,94,81,44,29.98,29.83,19,2,19,0.09
2013-3-13,52.2,50.6,49.0,46.6,44.6,41.8,84,80,76,30.01,29.98,2,0,2,0.00
2013-3-14,56.9,45.8,35.2,30.2,24.6,21.2,79,45,25,30.34,30.13,13,6,13,0.00
2013-3-15,71.2,59.4,32.5,46.2,37.8,29.8,90,49,27,30.26,30.06,12,2,12,0.00
2013-3-16,81.7,66.0,53.5,48.6,45.5,42.6,80,51,29,30.07,29.88,16,2,19,0.00
2013-3-17,79.9,66.0,56.1,57.0,51.8,44.6,82,61,41,30.06,29.96,15,2,15,0.00
2013-3-18,67.7,61.6,56.6,60.4,57.1,52.6,95,85,71,30.11,29.87,10,1,11,0.41
2013-3-19,77.7,62.3,53.3,58.5,49.0,30.6,96,68,25,30.03,29.83,14,1,16,0.17
2013-3-20,66.0,54.6,40.4,38.2,28.9,16.7,89,40,20,30.13,29.85,11,1,13,0.00
2013-3-21,60.3,47.7,36.5,37.6,25.5,11.9,91,48,17,29.98,29.82,16,1,16,0.00
2013-3-22,39.3,37.4,35.2,28.1,23.7,18.5,75,59,44,30.01,29.98,8,1,9,0.00
2013-3-23,55.4,47.8,41.4,52.5,43.5,37.0,94,86,61,30.08,29.90,11,3,11,0.51
2013-3-24,60.5,51.8,45.6,59.1,50.4,44.3,96,95,92,29.91,29.50,15,2,15,3.30
2013-3-25,56.9,49.1,42.2,46.4,34.3,23.1,96,61,30,30.00,29.61,19,3,20,0.00
2013-3-26,52.6,43.1,32.8,31.3,27.3,24.8,77,55,37,30.21,29.99,13,1,16,0.00
2013-3-27,61.7,45.2,29.4,33.2,29.0,25.8,91,58,28,30.31,30.19,14,1,14,0.00
2013-3-28,63.6,47.6,34.8,34.3,28.9,25.0,91,53,25,30.33,30.21,13,1,13,0.00
2013-3-29,69.5,50.0,32.8,41.0,33.1,24.8,94,60,20,30.38,30.23,8,1,10,0.00
2013-3-30,75.8,59.3,46.9,51.8,46.1,41.1,93,65,33,30.27,30.09,13,1,13,0.00
2013-3-31,77.5,63.9,55.8,59.9,55.8,51.2,95,76,54,30.11,29.91,18,2,20,0.17
2013-4-1,78.2,65.9,55.4,63.1,58.4,53.2,95,79,51,29.97,29.87,11,1,11,0.09
2013-4-2,74.3,56.9,45.6,53.3,47.4,44.1,95,74,36,30.16,29.97,9,1,11,0.00
2013-4-3,69.2,56.2,45.0,54.5,47.7,43.5,95,75,47,30.27,30.10,10,1,11,0.00
2013-4-4,55.8,52.9,47.7,54.4,48.9,43.5,95,87,68,30.27,29.88,12,2,12,0.55
2013-4-5,59.4,49.9,43.3,49.3,45.7,41.9,95,86,68,30.06,29.88,11,1,13,0.10
2013-4-6,71.8,55.7,40.2,50.7,44.5,38.9,95,71,32,30.26,30.06,12,1,12,0.00
2013-4-7,74.7,59.8,46.5,60.7,53.0,45.1,95,80,52,30.28,30.16,8,1,11,0.00
2013-4-8,82.2,64.7,49.2,62.6,56.7,47.8,95,78,46,30.22,30.14,12,1,12,0.00
2013-4-9,85.6,69.0,54.2,66.2,60.1,52.8,95,77,44,30.25,30.15,10,1,13,0.00
2013-4-10,84.5,68.8,54.9,65.8,60.3,53.6,96,78,45,30.20,30.05,12,1,12,0.00
2013-4-11,82.7,72.2,58.5,71.5,67.0,57.1,95,84,69,30.05,29.86,16,2,17,0.00
2013-4-12,81.2,72.1,66.8,73.1,69.5,64.7,96,92,76,29.88,29.75,18,2,18,1.44
2013-4-13,81.5,64.0,49.7,64.7,51.9,47.5,95,69,32,30.05,29.85,9,0,9,0.00
2013-4-14,72.4,61.6,50.2,63.0,57.2,48.8,96,86,66,30.12,29.97,7,0,7,0.59
2013-4-15,73.8,65.6,60.0,67.0,63.2,58.7,96,92,78,30.18,29.91,7,0,7,0.75
2013-4-16,81.7,67.6,57.2,66.8,61.3,56.1,96,82,56,30.27,30.18,6,0,7,0.00
2013-4-17,84.6,68.9,56.9,67.7,61.6,55.6,96,80,52,30.26,30.15,7,0,7,0.00
2013-4-18,82.8,70.6,60.7,69.9,64.2,59.3,95,82,56,30.17,30.05,9,1,9,0.00
2013-4-19,81.8,72.3,65.1,73.4,68.4,60.9,95,88,72,30.05,29.87,20,2,20,0.80
2013-4-20,64.8,55.0,44.9,60.9,48.9,40.8,96,82,50,30.27,29.95,11,1,11,0.58
2013-4-21,69.8,55.5,41.5,53.4,47.0,40.4,96,75,52,30.36,30.26,14,2,14,0.00
2013-4-22,69.7,57.8,48.7,52.3,46.0,36.3,79,65,52,30.33,30.16,13,2,14,0.00
2013-4-23,68.8,58.2,52.1,56.8,51.8,47.1,94,80,63,30.25,30.15,10,1,10,0.00
2013-4-24,82.0,63.5,46.8,62.6,55.2,45.7,96,77,42,30.21,30.08,13,1,13,0.00
2013-4-25,86.0,68.2,59.3,68.7,63.4,57.9,95,86,52,30.25,30.11,15,0,15,0.78
2013-4-26,78.2,65.6,53.7,61.2,54.0,43.1,96,71,33,30.40,30.24,9,0,9,0.00
2013-4-27,75.1,62.8,52.4,62.1,53.0,47.1,95,74,39,30.38,30.25,5,0,5,0.03
2013-4-28,76.8,66.3,54.3,66.3,60.7,51.3,95,83,65,30.25,30.06,14,1,16,0.00
2013-4-29,83.5,68.5,62.4,69.8,64.9,60.9,96,89,59,30.09,29.98,11,0,11,1.32
2013-4-30,77.0,66.0,61.6,69.4,63.6,60.3,96,92,70,30.12,29.99,7,0,7,0.57
2013-5-1,72.9,64.5,58.8,62.8,60.0,57.1,96,86,67,30.22,30.10,11,1,12,0.01
2013-5-2,73.5,67.0,63.8,66.3,62.6,58.1,94,86,72,30.20,30.14,15,1,15,0.03
2013-5-3,69.6,63.0,58.3,62.9,57.9,49.7,95,84,64,30.15,30.04,15,2,15,0.03
2013-5-4,68.4,60.6,53.6,61.4,56.7,50.7,94,87,68,30.04,29.93,12,1,12,0.11
2013-5-5,70.4,64.4,61.3,66.3,62.5,59.3,96,94,78,29.93,29.81,9,1,9,1.31
2013-5-6,76.2,64.2,54.6,62.0,55.1,48.6,96,76,40,29.96,29.85,11,1,13,0.01
2013-5-7,73.2,60.2,51.6,61.1,55.2,50.0,95,85,55,30.01,29.93,12,0,13,0.10
2013-5-8,82.1,64.8,48.1,62.8,56.0,47.0,96,76,44,30.08,29.99,13,1,13,0.00
2013-5-9,89.0,72.3,58.8,66.1,61.4,57.4,95,72,40,30.12,30.04,9,1,9,0.00
2013-5-10,89.2,73.4,59.6,66.2,62.2,58.2,95,71,40,30.13,30.03,13,1,16,0.00
2013-5-11,86.4,74.8,66.8,68.6,66.6,63.3,95,77,49,30.06,29.90,10,1,10,0.00
2013-5-12,85.4,74.4,60.8,68.9,61.5,52.9,93,67,36,30.04,29.88,11,1,11,0.00
2013-5-13,76.6,63.4,51.7,54.8,44.4,39.3,87,53,28,30.18,30.02,13,1,14,0.00
2013-5-14,79.8,61.6,45.1,54.0,48.8,42.6,95,68,31,30.29,30.16,12,1,12,0.00
2013-5-15,58.6,57.5,55.9,54.2,53.5,52.6,90,87,84,30.19,30.16,4,0,4,0.00
2013-5-16,85.7,73.9,61.9,69.0,63.7,57.3,86,72,53,30.10,30.03,10,5,10,0.00
2013-5-17,91.3,75.0,63.2,69.8,64.9,61.7,95,74,43,30.14,30.07,11,4,11,0.00
2013-5-18,87.8,74.0,63.6,70.2,66.8,62.1,95,80,55,30.18,30.10,11,3,11,0.00
2013-5-19,81.7,74.9,67.6,71.8,69.2,65.8,95,83,67,30.16,30.08,13,3,13,0.00
2013-5-20,81.2,72.8,66.7,75.5,70.1,65.2,95,92,73,30.14,30.06,16,3,16,0.38
2013-5-21,81.7,73.0,67.1,74.5,70.2,65.9,96,91,72,30.11,30.01,7,0,7,0.37
2013-5-22,87.6,74.3,63.8,74.4,67.8,62.6,96,82,54,30.05,29.95,9,0,10,0.01
2013-5-23,90.3,76.9,66.3,72.9,68.7,64.8,96,78,51,29.99,29.86,10,1,10,0.00
2013-5-24,84.1,73.7,59.4,68.7,57.6,40.4,93,60,31,30.19,29.89,16,1,16,0.00
2013-5-25,81.5,64.7,50.6,55.0,46.7,38.9,92,57,23,30.33,30.19,11,1,11,0.00
2013-5-26,87.2,68.8,52.9,63.7,57.4,51.5,95,71,38,30.30,30.16,14,1,14,0.00
2013-5-27,85.5,70.8,57.0,67.1,62.2,55.6,95,76,51,30.28,30.18,10,0,10,0.00
2013-5-28,85.8,72.7,60.7,69.0,64.0,59.3,95,76,49,30.27,30.20,11,0,11,0.00
2013-5-29,86.7,73.1,60.6,69.1,64.1,59.3,96,76,47,30.28,30.18,6,0,7,0.00
2013-5-30,89.2,75.1,62.3,72.3,67.7,60.8,96,80,52,30.28,30.19,7,0,9,0.00
2013-5-31,89.0,76.7,66.4,73.4,69.7,65.0,96,81,58,30.25,30.16,10,1,10,0.00
2013-6-1,89.5,76.5,64.9,72.1,68.7,63.7,96,79,51,30.18,30.10,11,1,11,0.00
2013-6-2,88.3,76.5,65.9,76.0,70.8,64.7,96,84,61,30.13,29.97,14,1,15,0.01
2013-6-3,83.6,76.1,71.0,76.6,73.0,69.0,95,90,78,30.00,29.88,13,1,13,1.18
2013-6-4,89.0,77.0,69.1,77.8,73.0,67.9,96,88,65,30.06,29.94,8,0,8,0.06
2013-6-5,82.5,74.6,70.8,76.3,72.3,69.2,96,93,80,30.09,29.98,7,0,7,2.46
2013-6-6,80.8,74.6,70.4,75.7,71.7,68.8,96,91,78,30.01,29.71,11,0,11,1.25
2013-6-7,87.3,77.6,73.1,75.8,73.1,71.0,96,87,64,29.89,29.51,16,2,18,0.31
2013-6-8,90.8,79.6,72.0,76.9,73.5,70.5,96,83,57,30.12,29.89,13,1,13,0.12
2013-6-9,88.5,79.4,73.9,77.6,74.4,72.5,96,85,65,30.16,30.08,13,1,13,0.00
2013-6-10,89.2,78.7,68.8,79.2,74.3,67.0,96,87,70,30.13,30.00,15,1,15,0.73
2013-6-11,91.8,77.9,70.0,77.4,73.2,68.8,96,86,61,30.07,29.95,10,1,10,0.52
2013-6-12,74.6,74.3,73.7,73.4,73.1,72.5,96,96,96,30.01,29.98,0,0,0,0.01
2013-6-13,97.5,86.6,77.1,79.4,76.7,74.4,95,75,51,29.95,29.75,16,6,16,0.00
2013-6-14,87.2,79.7,68.7,74.4,65.7,59.2,87,65,39,30.02,29.76,13,5,13,0.00
2013-6-15,88.2,74.7,64.4,67.8,63.3,58.6,95,70,47,30.15,30.02,12,2,12,0.00
2013-6-16,91.1,74.7,61.2,69.2,64.3,59.6,96,73,45,30.20,30.10,9,3,9,0.00
2013-6-17,91.1,77.1,66.5,76.6,71.1,65.0,96,83,57,30.12,30.00,12,4,12,0.35
2013-6-18,91.9,78.6,70.5,78.3,73.1,69.3,96,84,58,30.04,29.89,13,1,15,1.77
2013-6-19,92.0,77.6,72.3,76.8,73.7,71.1,96,88,59,30.08,29.92,12,1,14,1.43
2013-6-20,82.8,75.3,68.4,72.9,69.7,64.1,96,84,60,30.19,30.06,8,0,9,0.00
2013-6-21,86.8,75.7,66.7,73.3,68.7,63.4,92,80,59,30.21,30.14,11,1,11,0.00
2013-6-22,88.8,77.1,69.4,74.9,71.5,68.2,96,84,61,30.20,30.12,7,0,7,0.00
2013-6-23,90.8,79.1,71.5,77.1,73.6,70.2,96,84,59,30.22,30.14,6,0,7,0.00
2013-6-24,89.3,78.8,72.2,78.9,74.8,71.0,96,88,67,30.26,30.16,7,0,8,0.09
2013-6-25,90.9,79.6,71.8,78.9,74.6,70.6,96,86,60,30.20,30.08,10,1,12,0.26
2013-6-26,91.8,78.2,70.5,79.0,72.9,69.0,96,85,61,30.11,29.98,11,1,12,0.11
2013-6-27,94.3,80.3,73.9,80.3,75.5,70.5,96,86,58,30.02,29.83,13,1,18,0.28
2013-6-28,94.2,82.9,75.2,82.0,76.4,71.5,94,81,62,29.86,29.69,14,2,14,0.00
2013-6-29,89.6,79.5,72.0,77.4,73.4,69.7,94,82,64,29.80,29.72,12,2,12,0.07
2013-6-30,85.2,75.3,70.2,77.5,73.0,68.7,96,93,77,29.89,29.76,13,1,13,3.04
2013-7-1,87.9,78.0,70.8,79.9,74.5,69.6,96,89,69,30.04,29.84,18,1,18,0.84
2013-7-2,80.0,75.8,73.4,77.1,74.1,72.2,96,94,88,30.18,30.03,8,0,8,1.04
2013-7-3,86.1,77.9,72.7,78.9,74.8,71.5,96,91,76,30.25,30.15,16,0,16,1.36
2013-7-4,89.0,80.1,73.1,78.6,75.6,71.9,96,87,68,30.25,30.19,11,1,11,0.01
2013-7-5,89.8,79.5,74.1,79.2,75.7,72.8,96,89,67,30.26,30.18,9,0,9,0.12
2013-7-6,87.7,78.7,71.7,78.6,74.1,70.5,96,86,66,30.25,30.16,7,0,9,0.08
2013-7-7,91.3,79.7,71.0,76.8,73.3,69.8,96,82,59,30.22,30.13,10,1,10,0.00
2013-7-8,89.3,76.2,70.1,76.5,72.2,68.9,96,88,63,30.22,30.18,6,0,6,0.00
2013-7-9,81.1,78.8,76.5,74.8,74.5,73.8,92,87,81,30.17,30.13,4,0,4,0.00
2013-7-10,93.8,81.1,71.6,76.6,73.3,70.4,96,79,51,30.17,30.00,10,1,10,0.00
2013-7-11,80.3,75.3,73.4,75.0,73.0,71.9,95,93,84,30.04,30.00,10,0,10,0.00
2013-7-19,90.9,79.7,70.7,76.6,73.3,69.5,96,82,61,30.16,30.04,14,5,14,0.00
2013-7-20,89.0,79.5,74.0,77.1,74.1,71.5,95,84,67,30.11,30.02,14,6,14,0.06
2013-7-21,88.4,78.0,72.0,78.2,74.1,70.6,96,88,69,30.08,29.98,15,4,15,0.39
2013-7-22,92.2,80.9,73.4,77.8,74.4,72.1,96,82,59,30.05,29.94,12,7,12,0.00
2013-7-23,92.7,81.5,74.8,75.8,74.0,72.0,94,79,57,29.97,29.83,10,6,10,0.00
2013-7-24,87.3,79.6,72.1,77.3,74.3,70.1,94,84,70,29.87,29.78,6,3,6,0.00
2013-7-25,94.3,84.3,71.9,77.4,74.4,70.4,96,74,53,30.01,29.80,8,1,8,0.00
2013-7-26,89.5,79.3,71.8,78.4,74.2,70.0,95,85,66,30.08,30.00,8,0,8,0.02
2013-7-27,89.9,79.4,72.2,78.8,75.0,71.0,96,87,67,30.07,29.93,15,0,15,0.23
2013-7-28,89.5,80.1,74.4,79.0,75.6,72.8,96,87,66,30.05,29.94,6,0,6,0.00
2013-7-29,95.5,78.7,71.8,78.4,74.2,70.3,96,88,53,30.18,30.03,10,0,10,3.77
2013-7-30,92.7,78.9,71.4,79.3,74.8,70.2,96,88,61,30.21,30.13,5,0,5,0.00
2013-7-31,89.7,77.5,73.4,78.6,74.2,72.2,96,90,66,30.16,30.05,5,0,5,1.19
2013-8-1,86.8,77.8,72.6,77.1,73.9,71.3,96,88,70,30.05,29.96,8,1,10,0.00
2013-8-2,92.1,79.7,72.7,80.0,75.0,71.5,96,86,66,30.07,29.96,10,1,10,0.00
2013-8-3,95.5,82.7,73.0,80.8,76.0,71.8,96,82,55,30.07,29.96,7,0,7,0.00
2013-8-4,94.3,83.2,75.2,78.8,75.9,73.7,96,80,58,30.03,29.92,6,0,6,0.00
2013-8-5,88.5,79.4,70.5,74.8,70.9,66.2,94,77,51,30.08,29.99,6,0,6,0.00
2013-8-6,89.8,77.6,67.8,74.0,70.5,66.3,96,80,56,30.07,29.98,10,0,10,0.00
2013-8-7,92.0,79.0,70.6,75.9,71.8,69.1,96,80,54,30.10,30.03,4,0,4,0.00
2013-8-8,93.0,79.7,71.0,79.2,74.4,69.8,96,85,62,30.10,30.03,7,0,7,0.00
2013-8-9,95.6,82.5,73.8,79.1,75.5,72.6,96,81,56,30.14,30.05,10,1,10,0.00
2013-8-10,94.7,82.5,73.0,79.6,75.8,71.8,96,82,56,30.17,30.09,10,1,10,0.00
2013-8-11,98.5,84.9,75.5,80.3,76.1,73.3,96,78,47,30.17,30.07,9,1,9,0.00
2013-8-12,99.3,85.7,75.8,79.3,77.0,73.9,95,78,48,30.13,29.98,7,1,8,0.00
2013-8-13,96.8,85.1,75.9,80.6,77.5,74.7,96,80,53,30.01,29.87,13,1,13,0.10
2013-8-14,81.8,81.0,79.5,78.9,76.6,74.3,92,87,82,29.92,29.90,7,1,7,0.00
2013-8-15,74.4,67.8,64.1,73.2,66.7,62.9,97,96,95,30.12,30.00,10,4,10,1.06
2013-8-16,77.8,71.0,66.2,74.0,69.2,65.3,97,94,88,30.11,30.04,8,3,8,0.03
2013-8-17,77.9,72.4,69.8,73.6,70.5,68.9,97,94,85,30.18,30.05,7,3,7,0.03
2013-8-18,92.3,82.8,70.6,78.1,75.1,69.6,97,79,59,30.22,30.13,8,0,8,0.17
2013-8-19,89.2,77.9,73.2,80.2,75.0,72.0,96,91,71,30.17,30.06,8,0,8,0.18
2013-8-20,94.2,77.8,73.3,79.7,74.8,72.1,96,91,62,30.19,30.08,7,0,7,0.48
2013-8-21,91.3,79.6,72.0,79.0,74.9,70.8,96,87,61,30.24,30.14,7,0,7,0.01
2013-8-22,92.0,80.3,73.8,79.1,75.0,72.5,96,85,61,30.18,30.05,8,0,8,0.01
2013-8-23,94.5,80.2,71.9,76.9,73.5,70.3,96,82,54,30.08,29.99,13,0,13,0.00
2013-8-24,84.5,76.6,71.4,75.2,72.4,68.0,95,87,71,30.24,30.04,11,0,12,0.05
2013-8-25,85.0,74.3,65.8,68.9,65.5,60.4,95,76,47,30.33,30.24,16,1,16,0.00
2013-8-26,87.0,74.7,66.0,71.1,66.7,62.6,94,77,55,30.29,30.15,8,0,8,0.00
2013-8-27,88.8,75.0,64.4,71.5,67.5,63.1,96,80,51,30.18,30.04,7,0,7,0.00
2013-8-28,93.3,79.4,69.0,75.2,70.8,67.5,95,77,51,30.07,29.97,10,1,10,0.00
2013-8-29,97.2,82.2,71.4,78.9,74.4,69.9,95,79,52,30.00,29.89,8,0,8,0.02
2013-8-30,89.8,79.7,73.9,77.2,74.7,72.4,96,85,64,30.03,29.94,9,0,9,0.00
2013-8-31,95.3,80.6,71.8,77.8,74.0,70.6,96,82,49,30.01,29.91,8,0,9,0.00
2013-9-1,96.0,82.5,73.5,79.6,75.8,72.3,96,82,52,29.98,29.87,11,1,11,0.00
2013-9-2,93.8,81.4,72.8,80.0,75.7,70.7,95,84,55,29.98,29.86,14,1,14,0.04
2013-9-3,95.0,80.3,72.0,78.3,73.1,67.8,95,80,54,29.99,29.86,14,1,14,0.00
2013-9-4,97.7,81.5,70.4,78.4,73.7,68.7,95,79,51,30.11,29.97,8,0,8,0.00
2013-9-5,92.0,81.4,73.3,77.9,73.7,67.5,95,79,48,30.12,30.03,8,0,8,0.00
2013-9-6,91.3,78.9,69.3,71.6,68.5,64.2,96,74,43,30.13,30.04,9,0,9,0.00
2013-9-7,89.5,76.3,68.1,72.8,68.1,64.8,96,78,46,30.11,30.00,8,0,8,0.00
2013-9-8,93.1,77.4,64.9,73.9,69.5,63.6,96,79,49,30.03,29.93,8,0,8,0.00
2013-9-9,90.8,77.9,68.9,75.1,71.1,67.7,96,81,56,30.16,30.00,5,0,5,0.00
2013-9-10,90.9,78.1,68.9,74.8,71.0,67.7,96,81,52,30.24,30.14,9,1,9,0.00
2013-9-11,72.9,71.8,71.1,71.1,70.2,69.5,96,95,94,30.21,30.17,2,0,2,0.00
2013-9-12,94.7,78.7,67.9,72.6,69.6,66.2,96,77,41,30.12,29.92,12,3,12,0.00
2013-9-13,94.7,79.2,72.3,75.3,72.3,70.1,95,81,52,29.92,29.77,6,3,6,0.00
2013-9-14,84.5,75.7,67.2,73.7,68.3,60.6,94,78,68,30.08,29.82,12,5,12,0.00
2013-9-15,90.6,77.4,66.7,74.7,70.7,65.2,95,82,52,30.17,30.08,8,3,8,0.00
2013-9-16,91.6,76.7,70.3,77.1,72.3,69.1,96,88,57,30.15,30.04,12,2,12,0.24
2013-9-17,81.8,72.9,66.9,69.8,66.4,62.7,96,81,62,30.24,30.10,15,5,15,0.00
2013-9-18,80.3,69.1,60.9,63.3,58.4,53.6,89,70,41,30.25,30.16,11,2,11,0.00
2013-9-19,85.7,72.1,60.2,69.0,62.7,56.8,93,74,47,30.18,30.09,7,0,7,0.00
2013-9-20,88.3,73.1,63.2,70.5,66.1,62.0,96,81,53,30.11,29.98,6,0,6,0.00
2013-9-21,88.3,75.0,64.1,73.0,68.9,62.9,96,83,56,29.99,29.75,14,1,14,0.00
2013-9-22,80.2,73.2,66.3,72.7,68.7,64.8,95,86,69,29.89,29.73,10,1,10,0.07
2013-9-23,83.3,70.3,59.9,65.8,61.5,58.3,96,77,44,30.07,29.89,8,0,8,0.00
2013-9-24,83.0,69.8,60.0,65.2,62.0,58.3,94,78,54,30.08,29.94,9,1,9,0.00
2013-9-25,81.0,71.9,66.3,69.3,65.7,61.8,93,81,67,29.94,29.82,8,1,9,0.00
2013-9-26,75.3,67.0,60.5,66.4,63.9,59.3,96,90,74,29.98,29.83,13,1,13,1.06
2013-9-27,79.8,68.0,59.4,65.6,60.7,57.3,96,79,58,30.14,29.98,14,1,14,0.00
2013-9-28,77.9,67.0,57.6,64.5,59.8,54.8,91,78,63,30.18,30.11,9,1,10,0.00
2013-9-29,78.5,66.4,58.0,61.3,58.6,56.3,95,78,53,30.13,30.04,10,1,12,0.00
2013-9-30,78.5,64.2,53.9,62.5,57.5,52.8,96,81,52,30.10,30.02,8,0,8,0.00
2013-10-1,81.8,71.3,57.2,62.8,59.9,56.1,96,70,45,30.17,30.07,8,1,9,0.00
2013-10-2,87.0,68.8,55.9,66.6,60.9,54.8,96,79,42,30.17,30.08,7,0,7,0.00
2013-10-3,85.9,70.5,58.2,70.8,64.8,57.1,96,84,55,30.17,30.09,4,0,6,0.00
2013-10-4,89.3,72.9,62.9,72.7,66.5,61.7,96,83,47,30.17,30.08,7,0,8,0.00
2013-10-5,88.8,73.5,64.3,72.5,66.7,63.1,96,81,50,30.14,30.06,8,0,9,0.00
2013-10-6,86.6,74.2,65.5,76.8,70.5,64.0,96,89,69,30.08,29.94,5,0,5,0.30
2013-10-7,85.3,75.6,72.8,77.2,73.2,71.5,96,93,74,29.95,29.82,3,0,3,0.74
2013-10-8,73.6,65.7,58.7,72.4,62.9,56.4,96,91,84,30.10,29.86,16,2,16,0.03
2013-10-9,75.2,64.9,57.4,63.9,59.1,54.8,91,82,67,30.13,30.05,16,2,16,0.00
2013-10-10,63.3,60.2,57.5,59.0,57.2,55.4,93,90,86,30.08,30.06,5,0,5,0.00
2013-10-22,69.7,64.0,60.2,62.4,60.3,58.2,95,88,71,30.05,29.88,2,0,2,0.03
2013-10-23,73.8,64.1,55.9,60.8,52.2,40.0,96,70,35,30.04,29.80,15,4,15,0.02
2013-10-24,67.3,53.0,39.6,47.0,40.5,35.0,94,66,36,30.23,30.05,10,3,10,0.00
2013-10-25,61.1,50.7,43.7,45.8,42.2,37.7,96,75,46,30.38,30.18,13,4,13,0.00
2013-10-26,67.0,49.9,36.7,47.0,40.0,33.2,94,71,47,30.37,30.18,8,3,8,0.00
2013-10-27,75.7,54.8,38.7,56.0,47.0,37.7,96,79,48,30.19,30.10,6,1,6,0.00
2013-10-28,75.1,64.4,52.4,61.1,57.3,51.3,96,80,56,30.29,30.16,5,0,5,0.00
2013-10-29,79.5,61.3,48.3,62.3,54.8,47.2,96,82,47,30.36,30.26,8,0,9,0.00
2013-10-30,81.3,63.3,51.2,63.3,56.5,50.1,96,81,47,30.35,30.20,7,0,7,0.00
2013-10-31,82.5,66.8,51.0,69.0,61.3,49.9,96,84,59,30.24,30.02,12,1,13,0.00
2013-11-1,80.0,73.5,68.8,70.5,68.9,66.1,96,86,70,30.02,29.78,14,2,14,1.05
2013-11-2,72.6,64.6,51.4,67.6,59.5,49.9,96,85,50,29.99,29.77,9,0,9,0.73
2013-11-3,66.4,54.1,44.6,50.3,44.6,40.8,96,73,41,30.32,29.98,10,1,12,0.00
2013-11-4,65.4,53.6,43.9,43.4,40.5,35.4,92,64,34,30.46,30.31,8,1,17,0.00
2013-11-5,63.6,53.3,42.4,58.0,48.7,38.6,94,85,71,30.46,30.35,11,1,13,0.02
2013-11-6,76.5,64.5,53.6,65.6,59.9,52.2,96,86,67,30.35,30.11,8,0,8,0.00
2013-11-7,78.5,67.7,59.8,66.7,63.6,56.3,96,87,65,30.11,29.96,9,0,9,0.00
2013-11-8,60.7,51.3,37.2,56.2,37.3,31.8,95,62,35,30.33,30.07,16,2,17,0.00
2013-11-9,64.1,51.3,36.9,52.8,44.5,35.6,95,79,56,30.38,30.27,5,0,6,0.00
2013-11-10,71.9,57.4,46.4,54.7,49.9,45.0,95,79,44,30.29,30.17,6,0,6,0.00
2013-11-11,66.8,53.8,44.1,49.4,44.7,38.0,96,73,50,30.32,30.19,10,1,11,0.00
2013-11-12,73.7,56.2,40.9,52.6,45.0,31.1,96,70,38,30.38,30.04,26,1,28,0.00
2013-11-13,49.0,39.0,28.2,32.3,25.4,18.5,92,61,32,30.54,30.37,21,2,21,0.00
2013-11-14,28.1,27.2,26.7,25.8,25.3,24.8,93,92,91,30.53,30.50,1,0,1,0.00
2013-11-15,62.9,56.4,41.3,58.2,54.0,39.7,95,92,82,30.36,30.19,5,1,5,0.00
2013-11-16,77.9,63.6,55.1,63.4,58.9,54.0,96,86,57,30.25,30.17,7,0,7,0.00
2013-11-17,79.4,65.4,53.8,71.6,63.2,52.7,96,93,76,30.21,30.02,6,0,6,0.03
2013-11-18,82.9,72.2,62.1,72.6,67.5,50.3,96,86,63,30.03,29.85,11,1,11,0.00
2013-11-19,62.0,53.9,42.5,50.5,38.1,33.6,85,57,37,30.23,29.95,13,1,15,0.00
2013-11-20,58.7,51.5,43.8,48.0,42.2,35.1,77,71,65,30.36,30.22,12,2,13,0.00
2013-11-21,69.8,58.5,51.4,60.1,52.8,45.5,95,82,66,30.42,30.33,9,1,9,0.00
2013-11-22,75.5,64.9,58.4,68.6,62.6,57.3,96,93,71,30.37,30.18,5,0,5,0.19
2013-11-23,69.2,62.9,57.5,66.4,61.0,54.3,96,94,88,30.18,30.03,8,0,8,0.04
2013-11-24,57.5,42.4,30.7,54.3,25.6,15.4,89,53,30,30.55,30.13,19,2,19,0.00
2013-11-25,51.7,40.4,29.5,42.3,26.0,11.2,84,57,37,30.56,30.29,11,2,11,0.00
2013-11-26,45.9,43.8,42.4,40.9,39.7,38.6,93,86,82,30.29,30.20,5,1,5,0.01
2013-11-27,69.6,53.4,36.6,67.6,50.9,33.7,95,91,86,30.24,29.54,19,8,19,0.17
2013-11-28,48.3,38.3,27.1,31.9,27.5,22.4,95,68,42,30.53,30.25,11,1,11,0.00
2013-11-29,57.3,41.1,28.7,37.0,32.4,27.6,96,74,44,30.57,30.49,8,0,10,0.00
2013-11-30,56.1,45.9,34.9,42.2,36.4,29.2,80,70,56,30.57,30.34,11,1,11,0.00
2013-12-1,60.8,51.9,44.7,52.9,47.2,40.9,94,84,73,30.35,30.04,6,0,6,0.00
2013-12-2,64.8,53.8,43.2,52.0,48.0,41.9,95,82,50,30.04,29.85,9,0,9,0.00
2013-12-3,70.3,55.9,42.7,55.6,50.4,41.4,96,84,57,30.02,29.92,10,0,12,0.02
2013-12-4,78.3,64.2,55.5,67.0,59.7,54.3,96,86,60,30.13,30.00,6,0,6,0.00
2013-12-5,79.5,68.7,55.0,68.4,63.2,53.9,96,84,62,30.21,30.11,12,1,12,0.00
2013-12-6,80.6,71.5,66.2,69.7,66.6,64.2,94,85,67,30.18,30.09,11,3,19,0.00
2013-12-7,77.3,63.1,47.4,70.3,60.4,46.0,96,91,79,30.37,30.11,12,1,14,0.07
2013-12-8,47.4,45.0,43.4,46.3,43.9,42.3,97,96,95,30.38,30.28,9,1,10,0.13
2013-12-9,72.8,54.7,43.2,66.6,53.0,42.4,97,94,80,30.29,30.08,8,0,8,0.00
2013-12-10,74.8,62.6,46.6,69.1,59.1,44.7,96,89,71,30.34,30.00,18,2,18,0.16
2013-12-11,58.7,45.9,33.7,44.9,36.4,30.5,93,71,45,30.48,30.32,7,1,7,0.00
2013-12-12,53.9,37.8,29.8,37.5,32.2,27.8,96,82,38,30.44,30.31,15,1,15,0.00
2013-12-13,59.2,42.0,26.3,38.5,31.1,23.0,96,70,33,30.45,30.28,6,0,6,0.00
2013-12-14,69.1,59.6,46.3,66.9,56.4,38.3,96,89,73,30.28,29.83,18,2,19,1.07
2013-12-15,64.9,55.7,41.6,63.4,51.5,39.4,96,86,67,30.17,29.82,11,1,14,0.07
2013-12-16,61.8,44.7,32.8,42.8,38.0,31.8,96,81,40,30.26,30.17,6,0,6,0.00
2013-12-17,66.8,49.7,33.1,45.5,38.5,31.8,96,70,34,30.27,30.12,9,1,11,0.01
2013-12-18,58.2,40.3,32.3,38.8,16.1,-90.0,100,68,34,30.36,30.13,9,1,10,0.00
2013-12-19,67.3,46.2,29.3,50.1,39.1,27.0,96,80,42,30.40,30.27,6,0,6,0.00
2013-12-20,74.8,57.4,44.8,59.6,52.1,43.4,96,84,58,30.30,30.19,9,0,9,0.00
2013-12-21,78.7,64.9,50.3,68.9,61.2,49.2,96,89,71,30.21,30.10,19,1,19,0.00
2013-12-22,78.8,72.2,67.6,71.8,68.7,66.0,96,89,76,30.16,30.09,23,3,23,0.00
2013-12-23,80.5,69.9,58.0,70.7,66.5,56.6,96,89,69,30.16,30.05,19,2,22,0.33
2013-12-24,58.9,52.5,40.9,56.8,43.7,31.5,96,74,43,30.41,30.10,13,1,14,0.04
2013-12-25,49.4,40.1,31.1,33.1,29.1,22.5,78,65,50,30.52,30.37,12,1,12,0.00
2013-12-26,48.8,43.3,37.5,43.4,38.7,30.4,95,84,70,30.38,30.28,9,1,9,0.03
2013-12-27,57.5,46.3,37.2,39.9,35.6,32.4,88,68,40,30.45,30.34,7,1,9,0.00
2013-12-28,62.5,48.2,30.9,52.7,39.7,28.6,95,75,43,30.43,30.08,7,1,7,0.03
2013-12-29,73.7,62.8,50.7,68.2,59.2,48.3,96,89,65,30.08,29.83,22,2,27,0.93
2013-12-30,61.8,50.9,41.5,51.1,46.1,40.3,96,85,64,30.21,30.01,9,0,9,0.00
2013-12-31,55.9,50.0,42.1,47.2,44.3,40.5,95,82,58,30.42,30.18,7,0,8,0.00
2014-1-1,51.4,45.6,40.9,46.2,42.8,39.3,96,90,76,30.41,30.17,6,0,6,0.23
2014-1-2,57.4,50.9,45.7,56.3,49.4,40.3,96,95,78,30.18,29.70,11,1,13,0.83